Time,TemperatureF,DewpointF,PressureIn,WindDirection,WindDirectionDegrees,WindSpeedMPH,WindSpeedGustMPH,Humidity,HourlyPrecipIn,Conditions,Clouds,dailyrainin,SoftwareType,DateUTC
2013-01-31 00:01:00,23.2,11.0,29.91,South,185,0.0,3.0,59,0.00,,,0.03,Wunderground v.1.15,2013-01-31 07:01:00,
2013-01-31 00:11:00,23.0,11.2,29.91,South,185,0.0,3.0,60,0.00,,,0.03,Wunderground v.1.15,2013-01-31 07:11:00,
2013-01-31 00:21:00,22.7,10.9,29.91,South,185,0.0,3.0,60,0.00,,,0.00,Wunderground v.1.15,2013-01-31 07:21:00,
2013-01-31 00:31:00,22.7,11.3,29.91,South,185,0.0,3.0,61,0.00,,,0.00,Wunderground v.1.15,2013-01-31 07:31:00,
2013-01-31 00:36:00,23.0,11.9,29.90,South,185,0.0,3.0,62,0.00,,,0.00,Wunderground v.1.15,2013-01-31 07:36:00,
2013-01-31 00:46:00,23.5,12.7,29.90,South,185,0.0,3.0,63,0.00,,,0.00,Wunderground v.1.15,2013-01-31 07:46:00,
2013-01-31 00:56:00,23.8,12.7,29.90,South,185,0.0,3.0,62,0.00,,,0.00,Wunderground v.1.15,2013-01-31 07:56:00,
2013-01-31 01:11:00,24.2,13.0,29.90,South,185,0.0,3.0,62,0.00,,,0.00,Wunderground v.1.15,2013-01-31 08:11:00,
2013-01-31 07:16:00,34.6,11.6,29.90,South,191,0.0,3.0,38,0.00,,,0.00,Wunderground v.1.15,2013-01-31 14:16:00,
2013-01-31 07:26:00,33.5,11.7,29.92,South,191,0.0,3.0,40,0.00,,,0.00,Wunderground v.1.15,2013-01-31 14:26:00,
2013-01-31 07:36:00,32.4,12.4,29.94,South,191,0.0,3.0,43,0.00,,,0.00,Wunderground v.1.15,2013-01-31 14:36:00,
2013-01-31 07:46:00,31.9,12.9,29.94,South,191,0.0,3.0,45,0.00,,,0.00,Wunderground v.1.15,2013-01-31 14:46:00,
2013-01-31 07:56:00,31.9,12.9,29.97,South,191,0.0,3.0,45,0.00,,,0.00,Wunderground v.1.15,2013-01-31 14:56:00,
2013-01-31 08:11:00,31.6,13.2,29.99,South,191,0.0,3.0,46,0.00,,,0.00,Wunderground v.1.15,2013-01-31 15:11:00,
2013-01-31 08:21:00,31.8,13.8,30.00,SE,143,0.0,3.0,47,0.00,,,0.00,Wunderground v.1.15,2013-01-31 15:21:00,
2013-01-31 08:31:00,31.5,14.0,30.03,SE,143,0.0,3.0,48,0.00,,,0.00,Wunderground v.1.15,2013-01-31 15:31:00,
2013-01-31 08:41:00,31.5,14.5,30.03,SE,140,0.0,3.0,49,0.00,,,0.00,Wunderground v.1.15,2013-01-31 15:41:00,
2013-01-31 08:51:00,31.9,14.9,30.04,SE,140,0.0,3.0,49,0.00,,,0.00,Wunderground v.1.15,2013-01-31 15:51:00,
2013-01-31 08:56:00,32.2,14.7,30.04,SE,140,0.0,3.0,48,0.00,,,0.00,Wunderground v.1.15,2013-01-31 15:56:00,
2013-01-31 09:11:00,33.8,15.7,30.05,SE,140,0.0,3.0,47,0.00,,,0.00,Wunderground v.1.15,2013-01-31 16:11:00,
2013-01-31 09:21:00,34.9,16.7,30.04,SE,140,0.0,3.0,47,0.00,,,0.00,Wunderground v.1.15,2013-01-31 16:21:00,
2013-01-31 09:31:00,35.2,16.5,30.04,SE,140,0.0,3.0,46,0.00,,,0.00,Wunderground v.1.15,2013-01-31 16:31:00,
2013-01-31 09:41:00,35.6,16.8,30.08,SE,137,0.0,3.0,46,0.00,,,0.00,Wunderground v.1.15,2013-01-31 16:41:00,
2013-01-31 09:51:00,36.3,16.4,30.09,SE,137,0.0,3.0,44,0.00,,,0.00,Wunderground v.1.15,2013-01-31 16:51:00,
2013-01-31 10:01:00,37.6,16.5,30.09,SE,137,0.0,3.0,42,0.00,,,0.00,Wunderground v.1.15,2013-01-31 17:01:00,
2013-01-31 10:11:00,39.5,16.6,30.09,NW,315,0.0,3.0,39,0.00,,,0.00,Wunderground v.1.15,2013-01-31 17:11:00,
2013-01-31 10:16:00,40.1,17.1,30.07,NW,315,0.0,3.0,39,0.00,,,0.01,Wunderground v.1.15,2013-01-31 17:16:00,
2013-01-31 10:26:00,41.1,17.4,30.07,NNW,332,0.0,3.0,38,0.00,,,0.01,Wunderground v.1.15,2013-01-31 17:26:00,
2013-01-31 13:17:00,47.4,10.4,30.02,SW,224,2.0,3.0,22,0.00,,,0.01,Wunderground v.1.15,2013-01-31 20:17:00,
2013-01-31 13:26:00,47.6,10.6,30.02,SW,233,1.0,3.0,22,0.00,,,0.01,Wunderground v.1.15,2013-01-31 20:26:00,
2013-01-31 13:36:00,47.7,10.6,30.02,SSW,203,1.0,4.0,22,0.00,,,0.01,Wunderground v.1.15,2013-01-31 20:36:00,
2013-01-31 13:46:00,47.4,12.4,30.02,WNW,289,2.0,5.0,24,0.00,,,0.01,Wunderground v.1.15,2013-01-31 20:46:00,
2013-01-31 13:56:00,47.1,12.1,30.01,SSW,209,1.0,3.0,24,0.00,,,0.01,Wunderground v.1.15,2013-01-31 20:56:00,
2013-01-31 14:11:00,47.3,12.3,30.01,SSW,206,1.0,3.0,24,0.00,,,0.01,Wunderground v.1.15,2013-01-31 21:11:00,
2013-01-31 14:21:00,46.7,12.7,30.02,South,176,1.0,1.0,25,0.00,,,0.01,Wunderground v.1.15,2013-01-31 21:21:00,
2013-01-31 14:26:00,46.7,12.7,30.02,South,184,0.0,3.0,25,0.00,,,0.01,Wunderground v.1.15,2013-01-31 21:26:00,
2013-01-31 14:36:00,47.0,12.9,30.01,South,169,0.0,3.0,25,0.00,,,0.01,Wunderground v.1.15,2013-01-31 21:36:00,
2013-01-31 14:46:00,46.8,12.8,30.01,SSW,199,0.0,3.0,25,0.00,,,0.01,Wunderground v.1.15,2013-01-31 21:46:00,
2013-01-31 14:56:00,46.7,11.8,30.01,South,175,0.0,3.0,24,0.00,,,0.01,Wunderground v.1.15,2013-01-31 21:56:00,
2013-01-31 15:11:00,46.8,13.7,30.01,South,181,0.0,3.0,26,0.00,,,0.01,Wunderground v.1.15,2013-01-31 22:11:00,
2013-01-31 15:16:00,46.7,14.4,30.01,West,280,0.0,3.0,27,0.00,,,0.01,Wunderground v.1.15,2013-01-31 22:16:00,
2013-01-31 15:26:00,46.2,13.1,30.01,WSW,258,0.0,3.0,26,0.00,,,0.01,Wunderground v.1.15,2013-01-31 22:26:00,
2013-01-31 15:36:00,45.8,13.7,30.03,SSW,200,0.0,3.0,27,0.00,,,0.01,Wunderground v.1.15,2013-01-31 22:36:00,
2013-01-31 15:41:00,46.0,14.7,30.03,SSW,200,0.0,3.0,28,0.00,,,0.01,Wunderground v.1.15,2013-01-31 22:41:00,
2013-01-31 15:51:00,46.1,14.8,30.02,SW,216,0.0,3.0,28,0.00,,,0.01,Wunderground v.1.15,2013-01-31 22:51:00,
2013-01-31 16:01:00,46.4,14.2,30.02,WSW,258,0.0,3.0,27,0.00,,,0.01,Wunderground v.1.15,2013-01-31 23:01:00,
2013-01-31 16:11:00,46.8,13.7,30.02,SSW,203,0.0,3.0,26,0.00,,,0.01,Wunderground v.1.15,2013-01-31 23:11:00,
2013-01-31 16:21:00,47.0,14.7,30.01,West,267,0.0,3.0,27,0.00,,,0.01,Wunderground v.1.15,2013-01-31 23:21:00,
2013-01-31 16:31:00,46.5,15.1,30.01,SSE,150,0.0,3.0,28,0.00,,,0.01,Wunderground v.1.15,2013-01-31 23:31:00,
2013-01-31 16:41:00,46.2,14.0,29.92,West,281,0.0,3.0,27,0.00,,,0.01,Wunderground v.1.15,2013-01-31 23:41:00,
2013-01-31 17:11:00,44.8,14.4,29.94,South,184,0.0,3.0,29,0.00,,,0.01,Wunderground v.1.15,2013-02-01 00:11:00,
2013-01-31 17:16:00,44.5,14.2,29.95,South,179,0.0,3.0,29,0.00,,,0.01,Wunderground v.1.15,2013-02-01 00:16:00,
2013-01-31 17:26:00,44.1,16.1,29.95,South,181,0.0,3.0,32,0.00,,,0.01,Wunderground v.1.15,2013-02-01 00:26:00,
2013-01-31 17:36:00,43.6,15.6,29.96,South,181,0.0,3.0,32,0.00,,,0.01,Wunderground v.1.15,2013-02-01 00:36:00,
2013-01-31 17:46:00,43.1,17.3,29.96,South,181,0.0,3.0,35,0.00,,,0.01,Wunderground v.1.15,2013-02-01 00:46:00,
2013-01-31 17:56:00,42.3,17.2,29.97,South,181,0.0,3.0,36,0.00,,,0.01,Wunderground v.1.15,2013-02-01 00:56:00,
2013-01-31 18:11:00,41.3,18.2,29.97,South,181,0.0,3.0,39,0.00,,,0.01,Wunderground v.1.15,2013-02-01 01:11:00,
2013-01-31 18:21:00,40.6,17.5,29.99,South,181,0.0,3.0,39,0.00,,,0.01,Wunderground v.1.15,2013-02-01 01:21:00,
2013-01-31 18:31:00,40.2,17.8,30.02,NNE,32,0.0,3.0,40,0.00,,,0.01,Wunderground v.1.15,2013-02-01 01:31:00,
2013-01-31 18:41:00,39.9,17.5,30.02,NE,40,0.0,3.0,40,0.00,,,0.01,Wunderground v.1.15,2013-02-01 01:41:00,
2013-01-31 18:51:00,39.8,16.8,30.02,NE,40,0.0,3.0,39,0.00,,,0.01,Wunderground v.1.15,2013-02-01 01:51:00,
2013-01-31 19:01:00,39.6,16.6,30.02,NE,40,0.0,3.0,39,0.00,,,0.01,Wunderground v.1.15,2013-02-01 02:01:00,
2013-01-31 19:11:00,39.5,17.1,30.02,NE,38,0.0,3.0,40,0.00,,,0.01,Wunderground v.1.15,2013-02-01 02:11:00,
2013-01-31 19:21:00,39.2,17.4,30.03,NE,38,0.0,3.0,41,0.00,,,0.01,Wunderground v.1.15,2013-02-01 02:21:00,
2013-01-31 19:26:00,38.8,17.6,30.03,NE,38,0.0,3.0,42,0.00,,,0.01,Wunderground v.1.15,2013-02-01 02:26:00,
2013-01-31 19:36:00,38.2,17.1,30.06,NE,38,0.0,3.0,42,0.00,,,0.01,Wunderground v.1.15,2013-02-01 02:36:00,
2013-01-31 19:46:00,37.9,16.8,30.06,NE,38,0.0,3.0,42,0.00,,,0.01,Wunderground v.1.15,2013-02-01 02:46:00,
2013-01-31 19:56:00,37.9,17.4,30.06,NE,38,0.0,3.0,43,0.00,,,0.01,Wunderground v.1.15,2013-02-01 02:56:00,
2013-01-31 20:11:00,37.8,16.7,30.06,NE,38,0.0,3.0,42,0.00,,,0.01,Wunderground v.1.15,2013-02-01 03:11:00,
2013-01-31 20:21:00,37.9,17.4,30.07,NNE,30,0.0,3.0,43,0.00,,,0.01,Wunderground v.1.15,2013-02-01 03:21:00,
2013-01-31 20:31:00,37.9,17.9,30.07,NE,35,0.0,3.0,44,0.00,,,0.01,Wunderground v.1.15,2013-02-01 03:31:00,
2013-01-31 20:41:00,37.9,17.9,30.05,NNE,31,0.0,3.0,44,0.00,,,0.01,Wunderground v.1.15,2013-02-01 03:41:00,
2013-01-31 20:46:00,37.8,17.8,30.05,NNE,30,0.0,3.0,44,0.00,,,0.01,Wunderground v.1.15,2013-02-01 03:46:00,
2013-01-31 20:56:00,37.8,17.8,30.05,NNE,30,0.0,3.0,44,0.00,,,0.01,Wunderground v.1.15,2013-02-01 03:56:00,
2013-01-31 21:11:00,37.3,18.4,30.05,NNE,30,0.0,3.0,46,0.00,,,0.01,Wunderground v.1.15,2013-02-01 04:11:00,
2013-01-31 21:21:00,36.9,18.0,30.06,NNE,30,0.0,3.0,46,0.00,,,0.01,Wunderground v.1.15,2013-02-01 04:21:00,
2013-01-31 21:31:00,36.6,17.7,30.06,NNE,30,0.0,3.0,46,0.00,,,0.01,Wunderground v.1.15,2013-02-01 04:31:00,
2013-01-31 21:41:00,36.3,18.0,30.03,NNE,30,0.0,3.0,47,0.00,,,0.01,Wunderground v.1.15,2013-02-01 04:41:00,
2013-01-31 21:46:00,36.2,17.9,30.03,NNE,30,0.0,3.0,47,0.00,,,0.01,Wunderground v.1.15,2013-02-01 04:46:00,
2013-01-31 21:56:00,35.8,18.0,30.03,NNE,30,0.0,3.0,48,0.00,,,0.01,Wunderground v.1.15,2013-02-01 04:56:00,
2013-01-31 22:01:00,35.5,17.7,30.03,NNE,30,0.0,3.0,48,0.00,,,0.01,Wunderground v.1.15,2013-02-01 05:01:00,
2013-01-31 22:11:00,34.9,17.7,30.04,NNE,30,0.0,3.0,49,0.00,,,0.01,Wunderground v.1.15,2013-02-01 05:11:00,
2013-01-31 22:16:00,34.4,17.2,30.04,NNE,30,0.0,3.0,49,0.00,,,0.01,Wunderground v.1.15,2013-02-01 05:16:00,
2013-01-31 22:21:00,34.0,17.7,30.05,NNE,30,0.0,3.0,51,0.00,,,0.01,Wunderground v.1.15,2013-02-01 05:21:00,
2013-01-31 22:31:00,33.1,17.4,30.05,NNE,30,0.0,3.0,52,0.00,,,0.01,Wunderground v.1.15,2013-02-01 05:31:00,
2013-01-31 22:41:00,32.5,17.2,30.03,NNE,30,0.0,3.0,53,0.00,,,0.01,Wunderground v.1.15,2013-02-01 05:41:00,
2013-01-31 22:51:00,31.8,16.6,30.04,NNE,30,0.0,3.0,53,0.00,,,0.01,Wunderground v.1.15,2013-02-01 05:51:00,
2013-01-31 22:56:00,31.3,17.0,30.04,NNE,30,0.0,3.0,55,0.00,,,0.01,Wunderground v.1.15,2013-02-01 05:56:00,
2013-01-31 23:11:00,29.8,16.0,30.05,NNE,30,0.0,3.0,56,0.00,,,0.01,Wunderground v.1.15,2013-02-01 06:11:00,
2013-01-31 23:16:00,29.4,16.0,30.06,NNE,30,0.0,3.0,57,0.00,,,0.01,Wunderground v.1.15,2013-02-01 06:16:00,
2013-01-31 23:26:00,28.7,16.2,30.06,NNE,30,0.0,3.0,59,0.00,,,0.01,Wunderground v.1.15,2013-02-01 06:26:00,
2013-01-31 23:36:00,28.1,16.4,30.04,NNE,30,0.0,3.0,61,0.00,,,0.01,Wunderground v.1.15,2013-02-01 06:36:00,
2013-01-31 23:46:00,27.6,15.9,30.04,NNE,30,0.0,3.0,61,0.00,,,0.01,Wunderground v.1.15,2013-02-01 06:46:00,
2013-01-31 23:56:00,27.3,15.6,30.04,NNE,30,0.0,3.0,61,0.00,,,0.01,Wunderground v.1.15,2013-02-01 06:56:00,